Stations météo

Publicité
Ouessant, France (7100): Température de l'air & dewpoint: 17.04.2017 23:00:00 - 23.04.2017 23:00:00 (CEST)Ouessant, France (7100): Vitesse du vent & gusts: 17.04.2017 23:00:00 - 23.04.2017 23:00:00 (CEST)Ouessant, France (7100): Direction du vent: 17.04.2017 23:00:00 - 23.04.2017 23:00:00 (CEST)Ouessant, France (7100): reduced air pressure: 17.04.2017 23:00:00 - 23.04.2017 23:00:00 (CEST)Ouessant, France (7100): visibility: 17.04.2017 23:00:00 - 23.04.2017 23:00:00 (CEST)Ouessant, France (7100): Quantités de précipitations: 17.04.2017 23:00:00 - 23.04.2017 23:00:00 (CEST)
Date & Time tt [°C] td [°C] ff [km/h] ff [knt] fx [km/h] fx [knt] dd ppp [hPa] vv [km] rr [mm]
23.04.2017 23:00:00 11,1 5,2 37 20 56 30 E 1022,6 20 0,0
23.04.2017 22:00:00 11,8 6,7 35 19 47 25 ENE 1022,6 - 0,0
23.04.2017 21:00:00 11,8 7,5 31 17 44 24 ENE 1022,4 - 0,0
23.04.2017 20:00:00 12,9 7,6 30 16 40 21 NE 1022,4 - 0,0
23.04.2017 19:00:00 14,5 7,5 20 11 30 16 NE 1022,9 - 0,0
23.04.2017 18:00:00 13,8 8,6 14 7 24 13 N 1023,5 - 0,0
23.04.2017 17:00:00 14,9 9,9 16 9 23 12 NNE 1024,1 - 0,0
23.04.2017 16:00:00 14,2 9,4 14 7 24 13 N 1024,5 - 0,0
23.04.2017 15:00:00 14,6 9,8 16 9 23 12 NNE 1024,9 - 0,0
23.04.2017 14:00:00 14,7 9,9 16 9 26 14 NE 1025,2 - 0,0
23.04.2017 13:00:00 14,7 10,1 15 8 24 13 NE 1025,5 - 0,0
23.04.2017 12:00:00 14,7 8,4 15 8 22 12 E 1025,8 - 0,0
23.04.2017 11:00:00 13,4 8,7 17 9 26 14 E 1025,9 20 0,0
23.04.2017 10:00:00 11,5 7,4 23 12 33 18 E 1026,0 - 0,0
23.04.2017 09:00:00 10,3 7,0 29 16 37 20 E 1026,0 - 0,0
23.04.2017 08:00:00 9,5 6,9 29 16 37 20 E 1025,7 20 0,0
23.04.2017 07:00:00 9,3 7,1 26 14 32 17 E 1025,6 - 0,0
23.04.2017 06:00:00 9,4 7,2 26 14 32 18 E 1025,7 - 0,0
23.04.2017 05:00:00 9,8 7,9 24 13 31 17 E 1025,8 - 0,0
23.04.2017 04:00:00 10,0 8,3 23 13 35 19 E 1026,0 - 0,0
23.04.2017 03:00:00 10,1 8,4 25 13 35 19 E 1026,5 - 0,0
23.04.2017 02:00:00 10,5 8,9 19 10 27 15 E 1026,7 - 0,0
23.04.2017 01:00:00 10,7 8,8 19 11 31 17 ENE 1026,9 - 0,0
23.04.2017 00:00:00 10,8 7,8 25 14 36 19 E 1026,8 - 0,0
22.04.2017 23:00:00 11,0 7,7 26 14 42 23 ENE 1026,8 20 0,0
22.04.2017 22:00:00 11,2 7,7 29 16 46 25 ENE 1026,3 - 0,0
22.04.2017 21:00:00 11,5 7,6 29 16 41 22 NE 1026,1 - 0,0
22.04.2017 20:00:00 12,8 7,2 29 15 42 23 NE 1026,2 20 0,0
22.04.2017 19:00:00 13,6 8,0 31 17 44 24 NE 1026,3 - 0,0
22.04.2017 18:00:00 13,9 8,7 31 17 40 22 NNE 1026,5 - 0,0
22.04.2017 17:00:00 14,3 9,9 28 15 37 20 NNE 1026,8 15 0,0
22.04.2017 16:00:00 14,6 10,6 26 14 36 19 NNE 1027,4 - 0,0
22.04.2017 15:00:00 14,5 10,1 27 15 37 20 NNE 1027,8 - 0,0
22.04.2017 14:00:00 14,6 10,4 27 14 35 19 NNE 1028,1 - 0,0
22.04.2017 13:00:00 14,6 10,8 24 13 34 19 NE 1028,4 - 0,0
22.04.2017 12:00:00 13,8 10,6 23 13 36 19 NE 1028,7 - 0,0
22.04.2017 11:00:00 12,9 11,0 20 11 29 16 NE 1028,8 6 0,0
22.04.2017 10:00:00 11,3 10,0 18 10 28 15 ENE 1028,9 - 0,0
22.04.2017 09:00:00 10,6 9,8 16 9 24 13 ENE 1028,9 - 0,2
22.04.2017 08:00:00 9,9 9,1 15 8 24 13 ENE 1028,9 5 0,0
22.04.2017 07:00:00 9,6 8,8 17 9 23 13 ENE 1028,7 - 0,0
22.04.2017 06:00:00 9,8 8,9 16 8 22 12 ENE 1028,6 - 0,0
22.04.2017 05:00:00 9,8 8,7 13 7 20 11 ENE 1028,9 10 0,0
22.04.2017 04:00:00 9,9 8,5 16 9 24 13 E 1029,2 - 0,0
22.04.2017 03:00:00 9,9 8,2 18 10 32 17 ENE 1029,6 - 0,0
22.04.2017 02:00:00 10,5 8,4 22 12 33 18 ENE 1029,9 - 0,0
22.04.2017 01:00:00 10,2 7,4 21 11 31 17 NE 1030,1 - 0,0
22.04.2017 00:00:00 10,2 6,7 20 11 31 17 NE 1030,3 - 0,0
21.04.2017 23:00:00 10,2 6,3 20 11 32 17 NE 1030,6 20 0,0
21.04.2017 22:00:00 10,3 6,4 26 14 34 18 NNE 1030,3 - 0,0
21.04.2017 21:00:00 10,7 5,4 24 13 34 19 NE 1030,1 - 0,0
21.04.2017 20:00:00 12,0 5,6 25 14 37 20 NNE 1030,0 - 0,0
21.04.2017 19:00:00 12,9 5,8 24 13 36 19 NNE 1030,2 - 0,0
21.04.2017 18:00:00 13,5 6,6 26 14 36 19 NNE 1030,4 - 0,0
21.04.2017 17:00:00 13,8 6,4 26 14 35 19 NNE 1031,0 15 0,0
21.04.2017 16:00:00 13,8 5,4 26 14 35 19 NNE 1031,6 - 0,0
21.04.2017 15:00:00 13,6 5,2 24 13 31 17 NNE 1032,1 - 0,0
21.04.2017 14:00:00 13,8 4,9 19 11 29 16 NNE 1032,4 10 0,0
21.04.2017 13:00:00 13,3 5,7 15 8 18 10 NNE 1032,8 - 0,0
21.04.2017 12:00:00 13,7 5,6 11 6 18 10 ENE 1033,1 - 0,0
21.04.2017 11:00:00 12,4 5,1 12 7 19 10 E 1033,0 10 0,0
21.04.2017 10:00:00 10,6 3,8 16 8 20 11 ESE 1033,1 - 0,0
21.04.2017 09:00:00 9,4 4,6 16 9 26 14 E 1033,0 - 0,0
21.04.2017 08:00:00 8,2 3,8 21 12 31 17 ESE 1032,8 10 0,0
21.04.2017 07:00:00 8,1 4,7 28 15 36 19 E 1032,5 - 0,0
21.04.2017 06:00:00 8,1 3,5 29 15 41 22 E 1032,6 - 0,0
21.04.2017 05:00:00 8,7 5,1 33 18 42 23 E 1032,6 - 0,0
21.04.2017 04:00:00 8,9 5,6 30 16 40 22 E 1033,0 - 0,0
21.04.2017 03:00:00 9,1 5,8 32 17 41 22 E 1033,3 - 0,0
21.04.2017 02:00:00 9,1 5,5 33 18 42 23 E 1033,7 - 0,0
21.04.2017 01:00:00 9,2 5,2 31 17 41 22 E 1033,9 - 0,0
21.04.2017 00:00:00 9,5 4,7 32 17 46 25 E 1034,0 - 0,0
20.04.2017 23:00:00 9,6 4,2 36 20 53 28 ENE 1034,1 15 0,0
20.04.2017 22:00:00 9,7 3,9 37 20 52 28 ENE 1033,7 - 0,0
20.04.2017 21:00:00 10,0 4,1 38 20 57 31 ENE 1033,4 - 0,0
20.04.2017 20:00:00 10,3 4,0 41 22 58 31 ENE 1033,3 15 0,0
20.04.2017 19:00:00 11,0 3,8 42 23 58 31 ENE 1033,5 - 0,0
20.04.2017 18:00:00 11,7 2,9 37 20 52 28 NE 1033,7 - 0,0
20.04.2017 17:00:00 12,3 4,8 34 18 49 26 NE 1034,0 15 0,0
20.04.2017 16:00:00 12,5 4,5 33 18 47 26 NE 1034,6 - 0,0
20.04.2017 15:00:00 12,0 4,5 33 18 45 25 NE 1035,2 - 0,0
20.04.2017 14:00:00 11,9 3,1 30 16 43 23 ENE 1035,7 - 0,0
20.04.2017 13:00:00 11,5 2,2 29 16 40 22 ENE 1036,0 - 0,0
20.04.2017 12:00:00 11,1 0,8 25 13 40 21 ENE 1036,3 - 0,0
20.04.2017 11:00:00 10,3 0,0 24 13 35 19 E 1036,2 20 0,0
20.04.2017 10:00:00 9,1 1,0 26 14 36 20 ESE 1036,4 - 0,0
20.04.2017 09:00:00 8,1 1,2 29 16 35 19 E 1036,0 - 0,0
20.04.2017 08:00:00 7,0 1,7 29 16 41 22 E 1035,8 15 0,0
20.04.2017 07:00:00 7,0 1,9 35 19 46 25 E 1035,3 - 0,0
20.04.2017 06:00:00 7,2 1,5 42 23 54 29 E 1035,0 - 0,0
20.04.2017 05:00:00 7,6 2,1 45 24 56 30 E 1034,9 15 0,0
20.04.2017 04:00:00 7,7 1,3 46 25 58 31 E 1035,0 - 0,0
20.04.2017 03:00:00 8,0 2,2 41 22 53 29 E 1035,3 - 0,0
20.04.2017 02:00:00 8,2 1,3 44 24 54 29 E 1035,4 - 0,0
20.04.2017 01:00:00 8,6 2,8 44 24 54 29 E 1035,3 - 0,0
20.04.2017 00:00:00 9,1 4,3 44 24 60 33 E 1034,8 - 0,0
19.04.2017 23:00:00 9,5 4,5 48 26 59 32 E 1034,7 20 0,0
19.04.2017 22:00:00 9,8 5,2 41 22 58 31 ENE 1033,9 - 0,0
19.04.2017 21:00:00 10,0 5,4 41 22 58 32 ENE 1033,7 - 0,0
19.04.2017 20:00:00 10,4 5,4 40 22 58 32 ENE 1033,6 20 0,0
19.04.2017 19:00:00 11,2 5,5 38 21 57 31 NE 1033,6 - 0,0
19.04.2017 18:00:00 11,5 5,4 41 22 56 31 ENE 1033,6 - 0,0
19.04.2017 17:00:00 11,9 4,8 36 20 54 29 NE 1033,8 20 0,0
19.04.2017 16:00:00 12,1 5,0 35 19 50 27 NE 1034,4 - 0,0
19.04.2017 15:00:00 12,8 5,5 30 16 43 23 NE 1034,5 - 0,0
19.04.2017 14:00:00 12,8 4,7 26 14 38 21 NE 1034,6 - 0,0
19.04.2017 13:00:00 12,1 5,9 24 13 35 19 ENE 1035,1 - 0,0
19.04.2017 12:00:00 11,6 4,6 25 14 37 20 ENE 1034,9 - 0,0
19.04.2017 11:00:00 11,4 4,8 26 14 39 21 E 1034,6 20 0,0
19.04.2017 10:00:00 10,0 4,8 31 17 43 23 E 1034,2 - 0,0
19.04.2017 09:00:00 9,1 4,7 35 19 43 23 E 1033,8 - 0,0
19.04.2017 08:00:00 8,2 4,2 35 19 46 25 E 1033,6 20 0,0
19.04.2017 07:00:00 8,1 4,1 38 21 51 28 E 1033,2 - 0,0
19.04.2017 06:00:00 8,0 3,8 40 22 48 26 E 1033,2 - 0,0
19.04.2017 05:00:00 7,7 3,4 39 21 49 27 E 1032,8 15 0,0
19.04.2017 04:00:00 8,1 3,2 42 23 53 29 E 1032,3 - 0,0
19.04.2017 03:00:00 8,2 2,8 42 23 51 28 E 1032,4 - 0,0
19.04.2017 02:00:00 8,1 2,5 41 22 56 30 E 1032,4 15 0,0
19.04.2017 01:00:00 8,5 2,7 47 25 63 34 E 1032,2 - 0,0
19.04.2017 00:00:00 8,8 4,2 46 25 59 32 E 1031,9 - 0,0
18.04.2017 23:00:00 9,2 4,8 45 24 63 34 E 1031,4 15 0,0
18.04.2017 22:00:00 9,6 5,8 46 25 67 36 ENE 1030,6 - 0,0
18.04.2017 21:00:00 10,0 6,5 46 25 65 35 ENE 1029,6 - 0,0
18.04.2017 20:00:00 10,8 7,1 39 21 58 32 ENE 1029,6 15 0,0
18.04.2017 19:00:00 11,3 7,2 39 21 57 31 ENE 1029,1 - 0,0
18.04.2017 18:00:00 12,3 7,4 35 19 52 28 ENE 1029,1 - 0,0
18.04.2017 17:00:00 12,5 7,8 36 20 50 27 ENE 1029,1 20 0,0
18.04.2017 16:00:00 13,2 8,9 32 17 46 25 NE 1029,2 - 0,0
18.04.2017 15:00:00 13,3 9,2 30 16 43 23 NE 1029,2 - 0,0
18.04.2017 14:00:00 13,9 9,7 27 15 40 21 NE 1029,0 - 0,0
18.04.2017 13:00:00 13,8 9,6 24 13 33 18 NE 1029,0 - 0,0
18.04.2017 12:00:00 13,3 10,1 18 10 30 16 ENE 1029,0 - 0,0
18.04.2017 11:00:00 13,0 9,6 16 9 24 13 NE 1028,6 - 0,0
18.04.2017 10:00:00 11,9 8,9 18 10 27 14 NE 1028,2 - 0,0
18.04.2017 09:00:00 10,5 8,3 19 11 29 15 NE 1027,7 - 0,0
18.04.2017 08:00:00 9,6 7,7 22 12 30 16 NE 1027,3 28 0,0
18.04.2017 07:00:00 9,5 7,6 23 12 31 17 NNE 1026,7 - 0,0
18.04.2017 06:00:00 9,6 7,5 23 12 30 16 NE 1026,3 - 0,0
18.04.2017 05:00:00 9,6 7,7 21 11 34 18 NNE 1026,3 25 0,0
18.04.2017 04:00:00 9,7 7,6 24 13 39 21 NE 1026,2 - 0,0
18.04.2017 03:00:00 10,0 7,6 30 16 37 20 NNE 1026,3 - 0,0
18.04.2017 02:00:00 10,0 7,2 26 14 32 18 NNE 1026,4 20 0,0
18.04.2017 01:00:00 10,3 7,2 23 12 32 17 N 1026,5 - 0,0
18.04.2017 00:00:00 10,3 7,0 24 13 34 18 N 1026,4 - 0,0
17.04.2017 23:00:00 10,4 6,9 27 14 36 19 N 1026,1 - 0,0

tt = Température de l'air
td = dewpoint
ff = Vitesse du vent
fx = gusts
dd = Direction du vent
ppp = reduced air pressure
vv = visibility
rr = Quantités de précipitations

stations d'obs. à proximité